SM4IVE-5 Weather Reports


time (UTC)temp
C
wind
direction
speed
KPH
gust
KPH
rain 1hr
cm
rain 24hr
cm
rain mn
cm
humidity
%
barometer
mb
20260902204330 13 266 3.2 12.9 0.00 0.00 0.00 76 1008.1
20260902203837 13 275 3.2 11.3 0.00 0.00 0.00 76 1008.1
20260902203326 13 271 3.2 11.3 0.00 0.00 0.00 76 1008.0
20260902202831 13 246 3.2 12.9 0.00 0.00 0.00 76 1008.1
20260902202331 13 317 3.2 12.9 0.00 0.00 0.00 76 1008.1
20260902201831 14 286 3.2 14.5 0.00 0.00 0.00 76 1008.1
20260902201332 14 292 3.2 17.7 0.00 0.00 0.00 76 1008.1
20260902200851 14 164 1.6 17.7 0.00 0.00 0.00 76 1008.1
20260902200330 14 173 1.6 11.3 0.00 0.00 0.00 76 1008.1
20260902195836 14 296 3.2 14.5 0.00 0.00 0.00 76 1008.1
20260902195325 14 149 3.2 14.5 0.00 0.00 0.00 76 1008.1
20260902194834 14 312 1.6 8.0 0.00 0.00 0.00 76 1008.1
20260902194324 15 264 3.2 9.7 0.00 0.00 0.00 75 1008.1
20260902193831 14 313 4.8 11.3 0.00 0.00 0.00 75 1008.2
20260902193352 14 283 3.2 11.3 0.00 0.00 0.00 75 1008.2
20260902192852 15 200 3.2 6.4 0.00 0.00 0.00 75 1008.2
20260902192339 14 219 3.2 6.4 0.00 0.00 0.00 74 1008.2
20260902191828 14 171 1.6 6.4 0.00 0.00 0.00 74 1008.1
20260902191349 15 266 1.6 14.5 0.00 0.00 0.00 74 1008.2
20260902190828 15 177 1.6 14.5 0.00 0.00 0.00 74 1008.2
20260902190328 15 223 1.6 8.0 0.00 0.00 0.00 74 1008.2
20260902185829 15 200 1.6 4.8 0.00 0.00 0.00 73 1008.3
20260902185329 15 227 1.6 4.8 0.00 0.00 0.00 73 1008.2
20260902184830 15 184 1.6 3.2 0.00 0.00 0.00 73 1008.2
20260902184350 15 242 0.0 3.2 0.00 0.00 0.00 72 1008.2
20260902183831 15 235 0.0 4.8 0.00 0.00 0.00 71 1008.2
20260902183400 15 258 0.0 4.8 0.00 0.00 0.00 71 1008.2
20260902182828 15 325 1.6 6.4 0.00 0.00 0.00 70 1008.1
20260902182328 15 309 1.6 6.4 0.00 0.00 0.00 70 1008.2
20260902181830 15 291 1.6 4.8 0.00 0.00 0.00 69 1008.2
20260902181331 15 273 0.0 11.3 0.00 0.00 0.00 69 1008.2
20260902180829 15 323 3.2 11.3 0.00 0.00 0.00 68 1008.1
20260902180336 16 286 1.6 6.4 0.00 0.00 0.00 67 1008.1
20260902175845 16 249 1.6 6.4 0.00 0.00 0.00 67 1008.1
20260902175327 16 296 3.2 6.4 0.00 0.00 0.00 66 1008.1
20260902174835 16 298 1.6 6.4 0.00 0.00 0.00 65 1008.1
20260902174329 16 322 1.6 16.1 0.00 0.00 0.00 64 1008.1
20260902173829 16 269 3.2 16.1 0.00 0.00 0.00 64 1008.0
20260902173330 17 259 4.8 20.9 0.00 0.00 0.00 63 1008.0
20260902172847 17 302 6.4 20.9 0.00 0.00 0.00 62 1007.9
20260902172326 17 294 4.8 14.5 0.00 0.00 0.00 63 1007.9
20260902171825 17 282 3.2 11.3 0.00 0.00 0.00 63 1008.0
20260902171326 17 276 3.2 14.5 0.00 0.00 0.00 63 1007.9
20260902170825 17 280 3.2 19.3 0.00 0.00 0.00 62 1008.0
20260902170326 17 273 6.4 19.3 0.00 0.00 0.00 62 1007.9
20260902165825 17 281 3.2 11.3 0.00 0.00 0.00 62 1008.0
20260902165326 17 286 3.2 14.5 0.00 0.00 0.00 61 1008.0
20260902164825 17 323 3.2 22.5 0.00 0.00 0.00 60 1008.0
20260902164347 17 275 4.8 22.5 0.00 0.00 0.00 60 1008.0
20260902163834 18 346 6.4 17.7 0.00 0.00 0.00 59 1008.0
20260902163402 18 306 3.2 17.7 0.00 0.00 0.00 58 1008.0
20260902162830 18 313 6.4 19.3 0.00 0.00 0.00 58 1007.9
20260902162330 18 295 8.0 19.3 0.00 0.00 0.00 57 1007.9
20260902161830 18 274 6.4 19.3 0.00 0.00 0.00 56 1008.0
20260902161330 18 317 6.4 19.3 0.00 0.00 0.00 55 1008.0
20260902160829 18 283 6.4 19.3 0.00 0.00 0.00 55 1008.1
20260902160328 18 279 8.0 17.7 0.00 0.00 0.00 54 1008.0
20260902155829 18 313 4.8 17.7 0.00 0.00 0.00 55 1008.0
20260902155350 18 184 4.8 20.9 0.00 0.00 0.00 55 1008.0
20260902154829 18 248 6.4 20.9 0.00 0.00 0.00 55 1008.1
20260902154350 18 312 6.4 20.9 0.00 0.00 0.00 55 1008.1
20260902153828 18 298 9.7 24.1 0.00 0.00 0.00 55 1008.1
20260902153348 18 291 11.3 27.4 0.00 0.00 0.00 55 1008.0
20260902152828 19 318 11.3 27.4 0.00 0.00 0.00 54 1008.0
20260902152328 19 314 8.0 22.5 0.00 0.00 0.00 54 1008.1
20260902151829 19 288 9.7 30.6 0.00 0.00 0.00 54 1008.1
20260902151350 19 331 11.3 24.1 0.00 0.00 0.00 53 1008.1
20260902150830 19 300 11.3 24.1 0.00 0.00 0.00 54 1008.2
20260902150329 19 342 9.7 24.1 0.00 0.00 0.00 53 1008.3
20260902145829 19 305 8.0 22.5 0.00 0.00 0.00 54 1008.2
20260902145339 19 279 12.9 25.7 0.00 0.00 0.00 54 1008.3
20260902144829 20 319 11.3 25.7 0.00 0.00 0.00 54 1008.3
20260902144329 19 286 4.8 27.4 0.00 0.00 0.00 55 1008.2
20260902143830 19 265 9.7 27.4 0.00 0.00 0.00 53 1008.2
20260902143330 19 263 9.7 27.4 0.00 0.00 0.00 53 1008.3
20260902142850 19 279 8.0 27.4 0.00 0.00 0.00 53 1008.4
20260902142336 19 277 8.0 29.0 0.00 0.00 0.00 55 1008.5
20260902141845 19 296 11.3 33.8 0.00 0.00 0.00 53 1008.3
20260902141349 20 311 14.5 29.0 0.00 0.00 0.00 52 1008.3
20260902140835 20 280 9.7 29.0 0.00 0.00 0.00 52 1008.5
20260902140324 20 275 11.3 25.7 0.00 0.00 0.00 53 1008.4
20260902135825 20 309 9.7 22.5 0.00 0.00 0.00 53 1008.2
20260902135346 20 298 9.7 25.7 0.00 0.00 0.00 52 1008.2
20260902134824 20 306 14.5 24.1 0.00 0.00 0.00 51 1008.1
20260902134324 20 279 9.7 33.8 0.00 0.00 0.00 52 1008.1
20260902133845 20 292 14.5 33.8 0.00 0.00 0.00 48 1008.2
20260902133325 20 289 16.1 33.8 0.00 0.00 0.00 50 1008.0
20260902132825 20 296 11.3 29.0 0.00 0.00 0.00 51 1008.1
20260902132326 20 279 14.5 29.0 0.00 0.00 0.00 49 1007.9
20260902131826 21 289 9.7 20.9 0.00 0.00 0.00 49 1008.0
20260902131328 21 309 6.4 27.4 0.00 0.00 0.00 46 1008.0
20260902130828 21 288 8.0 32.2 0.00 0.00 0.00 44 1007.9
20260902130327 21 360 6.4 27.4 0.00 0.00 0.00 49 1007.9
20260902125828 20 101 9.7 27.4 0.00 0.00 0.00 48 1007.9
20260902125328 20 219 6.4 20.9 0.00 0.00 0.00 54 1007.8
20260902124836 20 306 6.4 24.1 0.00 0.00 0.00 52 1007.8
20260902124324 21 311 6.4 20.9 0.00 0.00 0.00 51 1007.7
20260902123825 21 304 6.4 24.1 0.00 0.00 0.00 50 1007.8
20260902123326 21 284 9.7 24.1 0.00 0.00 0.00 50 1007.8
20260902122827 21 315 6.4 29.0 0.00 0.00 0.00 49 1007.9
20260902122334 21 276 11.3 29.0 0.00 0.00 0.00 49 1008.0
20260902121841 21 304 9.7 32.2 0.00 0.00 0.00 50 1007.9
20260902121326 21 302 8.0 25.7 0.00 0.00 0.00 53 1008.0
20260902120834 21 319 8.0 27.4 0.00 0.00 0.00 55 1007.8
20260902120340 21 283 9.7 27.4 0.00 0.00 0.00 56 1007.8
20260902115828 20 298 11.3 24.1 0.00 0.00 0.00 57 1007.9
20260902115349 20 309 11.3 27.4 0.00 0.00 0.00 58 1007.8
20260902114829 21 318 9.7 27.4 0.00 0.00 0.00 57 1008.0
20260902114330 21 317 4.8 20.9 0.00 0.00 0.00 58 1007.8
20260902113830 21 290 8.0 20.9 0.00 0.00 0.00 58 1008.0
20260902113332 21 292 9.7 20.9 0.00 0.00 0.00 59 1007.8
20260902112840 20 304 8.0 17.7 0.00 0.00 0.00 60 1007.9
20260902112328 20 266 8.0 19.3 0.00 0.00 0.00 61 1008.0
20260902111850 20 310 9.7 29.0 0.00 0.00 0.00 61 1008.0
20260902111330 20 293 11.3 29.0 0.00 0.00 0.00 60 1008.1
20260902110830 20 279 4.8 22.5 0.00 0.00 0.00 64 1008.1
20260902110340 20 294 6.4 19.3 0.00 0.00 0.00 69 1008.2
20260902105828 19 229 1.6 8.0 0.00 0.00 0.00 70 1008.2
20260902105329 19 275 3.2 16.1 0.00 0.00 0.00 71 1008.3
20260902104828 19 303 3.2 16.1 0.00 0.00 0.00 69 1008.2
20260902104330 19 290 4.8 16.1 0.00 0.00 0.00 69 1008.2
20260902103850 20 304 6.4 17.7 0.00 0.00 0.00 69 1008.3
20260902103350 20 187 6.4 19.3 0.00 0.00 0.00 69 1008.1
20260902102839 20 288 4.8 19.3 0.00 0.00 0.00 69 1008.2
20260902102329 20 286 4.8 12.9 0.00 0.00 0.00 69 1008.3
20260902101830 20 82 3.2 17.7 0.00 0.00 0.00 69 1008.3
20260902101331 20 167 4.8 17.7 0.00 0.00 0.00 69 1008.3
20260902100831 20 293 8.0 16.1 0.00 0.00 0.00 69 1008.3
20260902100338 20 197 3.2 14.5 0.00 0.00 0.00 72 1008.3
20260902095829 20 213 4.8 17.7 0.00 0.00 0.00 71 1008.4
20260902095328 19 326 6.4 17.7 0.00 0.00 0.00 73 1008.4
20260902094849 19 275 6.4 16.1 0.00 0.00 0.00 74 1008.3
20260902094330 18 245 4.8 19.3 0.00 0.00 0.00 76 1008.3
20260902093829 18 273 4.8 19.3 0.00 0.00 0.00 78 1008.3
20260902093350 18 213 3.2 14.5 0.00 0.00 0.00 78 1008.5
20260902092830 18 266 3.2 14.5 0.00 0.00 0.00 77 1008.6
20260902092331 18 294 4.8 19.3 0.00 0.00 0.00 77 1008.5
20260902091832 18 199 4.8 19.3 0.00 0.00 0.00 79 1008.6
20260902091333 18 168 4.8 12.9 0.00 0.00 0.00 79 1008.6
20260902090840 17 227 4.8 12.9 0.00 0.00 0.00 81 1008.5
20260902090329 17 68 3.2 11.3 0.00 0.00 0.00 82 1008.7
20260902085850 17 217 3.2 14.5 0.00 0.00 0.00 82 1008.7
20260902085358 17 287 4.8 17.7 0.00 0.00 0.00 81 1008.7
20260902084852 17 327 4.8 12.9 0.00 0.00 0.00 80 1008.7
20260902084328 17 321 4.8 12.9 0.00 0.00 0.00 80 1008.7
20260902083836 17 323 1.6 17.7 0.00 0.00 0.00 80 1008.7
20260902083324 17 302 8.0 22.5 0.00 0.00 0.00 80 1008.7
20260902082846 18 286 9.7 22.5 0.00 0.00 0.00 79 1008.6
20260902082327 18 292 3.2 17.7 0.00 0.00 0.00 80 1008.6
20260902081835 18 297 6.4 17.7 0.00 0.00 0.00 79 1008.6
20260902081325 18 295 4.8 16.1 0.00 0.00 0.00 80 1008.6
20260902080824 18 162 3.2 14.5 0.00 0.00 0.00 81 1008.6
20260902080324 17 232 4.8 14.5 0.00 0.00 0.00 81 1008.5
20260902075825 17 260 3.2 9.7 0.00 0.00 0.00 80 1008.6
20260902075355 17 183 3.2 12.9 0.00 0.00 0.00 81 1008.5
20260902074841 17 188 4.8 14.5 0.00 0.00 0.00 81 1008.6
20260902074330 17 314 4.8 20.9 0.00 0.00 0.00 82 1008.5
20260902073850 17 298 8.0 20.9 0.00 0.00 0.00 81 1008.5
20260902073350 17 284 3.2 16.1 0.00 0.00 0.00 83 1008.5
20260902072829 17 294 1.6 9.7 0.00 0.00 0.00 84 1008.6
20260902072329 16 51 3.2 9.7 0.00 0.00 0.00 85 1008.6
20260902071850 16 199 3.2 11.3 0.00 0.00 0.00 84 1008.6
20260902071338 16 199 3.2 11.3 0.00 0.00 0.00 84 1008.6
20260902070824 16 202 3.2 14.5 0.00 0.00 0.00 85 1008.6
20260902070330 16 344 6.4 14.5 0.00 0.00 0.00 85 1008.6
20260902065829 16 225 4.8 14.5 0.00 0.00 0.00 85 1008.6
20260902065349 15 200 3.2 14.5 0.00 0.00 0.00 85 1008.6
20260902064828 15 173 4.8 16.1 0.00 0.00 0.00 85 1008.4
20260902064329 15 176 3.2 16.1 0.00 0.00 0.00 86 1008.4
20260902063829 15 355 4.8 22.5 0.00 0.00 0.00 85 1008.6
20260902063349 15 250 8.0 20.9 0.00 0.00 0.00 85 1008.6
20260902062831 15 300 6.4 19.3 0.00 0.00 0.00 86 1008.7
20260902062400 15 282 6.4 19.3 0.00 0.00 0.00 86 1008.6
20260902061828 15 26 3.2 9.7 0.00 0.00 0.00 86 1008.5
20260902061356 15 323 3.2 9.7 0.00 0.00 0.00 86 1008.5
20260902060824 15 278 1.6 9.7 0.00 0.00 0.00 87 1008.5
20260902060331 15 262 1.6 8.0 0.00 0.00 0.00 87 1008.5
20260902055826 15 280 3.2 11.3 0.00 0.00 0.00 87 1008.5
20260902055327 15 299 3.2 11.3 0.00 0.00 0.00 87 1008.4
20260902054828 15 287 1.6 11.3 0.00 0.00 0.00 87 1008.5
20260902054334 15 142 1.6 11.3 0.00 0.00 0.00 87 1008.4
20260902053902 14 223 3.2 11.3 0.00 0.00 0.00 88 1008.4
20260902053327 14 16 3.2 12.9 0.00 0.00 0.00 88 1008.4
20260902052825 14 279 1.6 12.9 0.00 0.00 0.00 88 1008.5
20260902052326 14 246 1.6 8.0 0.00 0.00 0.00 88 1008.5
20260902051827 14 230 3.2 9.7 0.00 0.00 0.00 88 1008.5
20260902051335 13 300 1.6 9.7 0.00 0.00 0.00 88 1008.5
20260902050829 13 191 1.6 9.7 0.00 0.00 0.00 88 1008.6
20260902050337 13 238 1.6 9.7 0.00 0.00 0.00 88 1008.6
20260902045827 13 80 1.6 11.3 0.00 0.00 0.00 88 1008.6
20260902045337 13 206 1.6 8.0 0.00 0.00 0.00 88 1008.6
20260902044846 13 241 3.2 8.0 0.00 0.00 0.00 88 1008.7
20260902044354 13 263 1.6 6.4 0.00 0.00 0.00 88 1008.7
20260902043840 13 218 1.6 11.3 0.00 0.00 0.00 87 1008.7
20260902043329 13 290 3.2 11.3 0.00 0.00 0.00 87 1008.6
20260902042830 13 185 1.6 8.0 0.00 0.00 0.00 87 1008.6
20260902042330 14 253 1.6 12.9 0.00 0.00 0.00 87 1008.6
20260902041830 14 225 4.8 12.9 0.00 0.00 0.00 87 1008.6
20260902041354 14 290 3.2 17.7 0.00 0.00 0.00 86 1008.6
20260902040824 14 311 3.2 12.9 0.00 0.00 0.00 86 1008.6
20260902040333 14 302 3.2 11.3 0.00 0.00 0.00 86 1008.6
20260902035857 14 284 3.2 16.1 0.00 0.00 0.00 86 1008.6
20260902035329 14 18 3.2 19.3 0.00 0.00 0.00 86 1008.6
20260902034825 14 360 6.4 19.3 0.00 0.00 0.00 86 1008.6
20260902034326 14 236 4.8 12.9 0.00 0.00 0.00 86 1008.8
20260902033825 14 273 3.2 12.9 0.00 0.00 0.00 87 1008.8
20260902033326 14 298 3.2 12.9 0.00 0.00 0.00 87 1008.8
20260902032828 15 315 4.8 20.9 0.00 0.00 0.00 87 1008.8
20260902032327 15 325 6.4 20.9 0.00 0.00 0.00 87 1008.8
20260902031836 15 330 3.2 11.3 0.00 0.00 0.00 88 1008.8
20260902031324 15 246 1.6 6.4 0.00 0.00 0.00 88 1008.8
20260902030826 15 172 1.6 8.0 0.00 0.00 0.00 88 1008.8
20260902030326 15 219 0.0 8.0 0.00 0.00 0.00 88 1008.8
20260902025847 15 313 0.0 3.2 0.00 0.00 0.00 87 1008.8
20260902025334 15 249 1.6 8.0 0.00 0.00 0.00 87 1008.9
20260902024824 15 274 1.6 12.9 0.00 0.00 0.00 87 1008.8
20260902024347 15 303 1.6 12.9 0.00 0.00 0.00 87 1008.9
20260902023826 15 295 4.8 12.9 0.00 0.00 0.00 88 1008.9
20260902023326 15 304 3.2 12.9 0.00 0.00 0.00 89 1008.9
20260902022827 15 336 3.2 12.9 0.00 0.00 0.00 89 1008.9
20260902022334 15 207 1.6 8.0 0.00 0.00 0.00 89 1008.8
20260902021843 15 177 3.2 9.7 0.00 0.00 0.00 89 1008.8
20260902021345 15 298 3.2 12.9 0.00 0.00 0.00 89 1008.8
20260902020825 14 315 3.2 12.9 0.00 0.00 0.00 90 1008.8
20260902020325 14 169 3.2 9.7 0.00 0.00 0.00 90 1008.8
20260902015826 14 192 1.6 8.0 0.00 0.00 0.00 90 1008.8
20260902015327 14 259 1.6 6.4 0.00 0.00 0.00 90 1008.9
20260902014827 14 221 1.6 6.4 0.00 0.00 0.00 90 1008.8
20260902014335 13 240 3.2 11.3 0.00 0.00 0.00 90 1008.9
20260902013824 13 295 3.2 11.3 0.00 0.00 0.00 90 1008.9
20260902013325 13 182 3.2 8.0 0.00 0.00 0.00 90 1008.9
20260902012827 13 221 3.2 8.0 0.00 0.00 0.00 89 1008.9
20260902012347 13 186 3.2 8.0 0.00 0.00 0.00 89 1008.9
20260902011827 13 192 3.2 9.7 0.00 0.00 0.00 89 1008.9
20260902011347 13 206 3.2 9.7 0.00 0.00 0.00 89 1008.9
20260902010826 13 305 1.6 8.0 0.00 0.00 0.00 89 1008.9
20260902010327 13 173 3.2 8.0 0.00 0.00 0.00 89 1008.9
20260902005833 13 211 1.6 8.0 0.00 0.00 0.00 89 1008.9
20260902005340 13 180 3.2 8.0 0.00 0.00 0.00 89 1008.9
20260902004826 13 173 1.6 6.4 0.00 0.00 0.00 89 1008.9
20260902004353 13 185 3.2 9.7 0.00 0.00 0.00 89 1009.0
20260902003852 13 202 3.2 12.9 0.00 0.00 0.00 89 1009.0
20260902003332 13 199 1.6 6.4 0.00 0.00 0.00 89 1009.0
20260902002831 13 214 1.6 4.8 0.00 0.00 0.00 89 1009.0
20260902002351 13 205 1.6 9.7 0.00 0.00 0.00 89 1009.0
20260902001840 13 180 1.6 9.7 0.00 0.00 0.00 89 1009.1
20260902001329 13 190 1.6 6.4 0.00 0.00 0.00 89 1009.1
20260902000831 13 273 1.6 8.0 0.00 0.00 0.00 89 1009.1
20260902000330 13 191 3.2 8.0 0.00 0.00 0.00 89 1009.1
20260901235900 14 201 1.6 8.0 0.00 0.00 0.00 89 1009.0
20260901235328 14 215 1.6 4.8 0.00 0.00 0.00 89 1009.0
20260901234830 14 210 3.2 8.0 0.00 0.00 0.00 89 1009.0
20260901234332 14 190 4.8 8.0 0.00 0.00 0.00 89 1009.1
20260901233832 14 218 3.2 9.7 0.00 0.00 0.00 89 1009.2
20260901233329 14 192 4.8 9.7 0.00 0.00 0.00 89 1009.2
20260901232832 14 225 1.6 6.4 0.00 0.00 0.00 89 1009.2
20260901232331 14 184 1.6 6.4 0.00 0.00 0.00 89 1009.2
20260901231853 14 178 1.6 6.4 0.00 0.00 0.00 89 1009.2
20260901231351 14 174 0.0 6.4 0.00 0.00 0.00 89 1009.2
20260901230840 14 198 1.6 6.4 0.00 0.00 0.00 89 1009.2
20260901230329 14 283 1.6 4.8 0.00 0.00 0.00 88 1009.2
20260901225850 14 179 0.0 6.4 0.00 0.00 0.00 88 1009.1
20260901225330 14 318 0.0 3.2 0.00 0.00 0.00 88 1009.1
20260901224831 14 287 1.6 6.4 0.00 0.00 0.00 88 1009.2
20260901224340 14 261 1.6 6.4 0.00 0.00 0.00 88 1009.2
20260901223828 14 249 1.6 4.8 0.00 0.00 0.00 88 1009.2
20260901223349 14 288 0.0 6.4 0.00 0.00 0.00 88 1009.1
20260901222830 14 286 3.2 8.0 0.00 0.00 0.00 88 1009.1
20260901222331 14 318 3.2 11.3 0.00 0.00 0.00 88 1009.2
20260901221831 14 295 3.2 11.3 0.00 0.00 0.00 88 1009.2
20260901221331 14 290 1.6 6.4 0.00 0.00 0.00 88 1009.2
20260901220839 14 272 1.6 6.4 0.00 0.00 0.00 88 1009.2
20260901220325 14 84 1.6 4.8 0.00 0.00 0.00 88 1009.2
20260901215835 14 198 3.2 4.8 0.00 0.00 0.00 88 1009.2
20260901215324 14 227 0.0 6.4 0.00 0.00 0.00 87 1009.1
20260901214831 14 301 1.6 6.4 0.00 0.00 0.00 88 1009.2
20260901214339 14 188 0.0 4.8 0.00 0.00 0.00 88 1009.2
20260901213827 14 215 1.6 4.8 0.00 0.00 0.00 88 1009.2
20260901213336 14 275 1.6 4.8 0.00 0.00 0.00 88 1009.2
20260901212824 14 234 0.0 4.8 0.00 0.00 0.00 88 1009.2
20260901212352 14 250 0.0 3.2 0.00 0.00 0.00 87 1009.1
20260901211839 14 192 0.0 3.2 0.00 0.00 0.00 87 1009.1
20260901211329 14 192 0.0 1.6 0.00 0.00 0.00 87 1009.1
20260901210829 14 192 0.0 3.2 0.00 0.00 0.00 87 1009.1
20260901210329 14 192 0.0 3.2 0.00 0.00 0.00 87 1009.1
20260901205830 14 192 0.0 3.2 0.00 0.00 0.00 86 1009.1
20260901205338 14 192 0.0 3.2 0.00 0.00 0.00 86 1009.1
20260901204827 14 192 0.0 3.2 0.00 0.00 0.00 86 1009.1